Home   Weather   Münster   Past weeks

Flag for Germany Past Weather in Münster, North Rhine-Westphalia, Germany — Yesterday and Last 2 Weeks

Now
30 °F

Ice fog.


Feels Like: 30 °F
Forecast: 24 / 36 °F
Wind: 2 mph from North

Location: Muenster / Osnabrueck

Current Time: Dec 3, 2016 at 10:50:17 am

Latest Report: Dec 3, 2016 at 10:20 am


Visibility: 2 mi

Pressure: 30.30 "Hg

Humidity: 100%

Dew Point: 30 °F

Location of MünsterLocation

Past Weather in Münster — Graph

°F

Münster Temperature Yesterday

Maximum temperature yesterday: 46 °F (at 12:20 am)
Minimum temperature yesterday: 27 °F (at 11:50 pm)
Average temperature yesterday: 41 °F

High & Low Weather Summary for the Past Weeks

 TemperatureHumidityPressure
High57 °F (Nov 20, 2:50 pm)100% (Nov 23, 4:50 am)30.60 "Hg (Nov 23, 4:50 am)
Low18 °F (Nov 29, 7:20 am)55% (Nov 20, 4:50 pm)29.27 "Hg (Nov 20, 12:50 pm)
Average40 °F85%30.05 "Hg
* Reported Nov 18 9:20 am — Dec 3 9:20 am, Münster, Weather by CustomWeather, © 2016

Note: Actual official high and low records may vary slightly from our data, if they occured in-between our weather recording intervals... More about our weather records

Advertising

Münster Weather History for the Previous 24 Hours

Scroll right to see more
 ConditionsComfort  
Time TempWeatherWind HumidityBarometerVisibility
9:20 am
Sat, Dec 3
30 °FIce fog.1 mph93%30.30 "Hg2 mi
8:50 am28 °FIce fog.1 mph100%30.30 "Hg2 mi
8:20 am28 °FIce fog.2 mph100%30.30 "Hg2 mi
7:50 am28 °FFog.2 mph100%30.27 "Hg4 mi
7:20 am28 °FFog.3 mph100%30.27 "Hg4 mi
6:50 am27 °FFog.1 mph93%30.27 "Hg4 mi
6:20 am25 °FCold.1 mph100%30.27 "Hg4 mi
5:50 am27 °FFog.2 mph93%30.27 "Hg4 mi
5:20 am27 °FPassing clouds.1 mph93%30.27 "HgN/A
4:50 am27 °FPassing clouds.No wind100%30.27 "HgN/A
4:20 am28 °FPassing clouds.No wind93%30.27 "HgN/A
3:50 am28 °FPassing clouds.2 mph93%30.27 "HgN/A
3:20 am27 °FPassing clouds.1 mph100%30.27 "HgN/A
2:50 am27 °FChilly.1 mph100%30.27 "HgN/A
2:20 am27 °FFog.1 mph100%30.27 "HgN/A
1:50 am27 °FFog.1 mph93%30.27 "HgN/A
1:20 am28 °FFog.2 mph93%30.27 "HgN/A
12:50 am28 °FFog.1 mph100%30.27 "HgN/A
12:20 am27 °FChilly.No wind100%30.27 "HgN/A
11:50 pm
Fri, Dec 2
27 °FChilly.No wind100%30.27 "HgN/A
11:20 pm28 °FChilly.No wind100%30.24 "HgN/A
10:50 pm28 °FChilly.No wind93%30.24 "HgN/A
10:20 pm28 °FSleet. Overcast.No wind93%30.24 "HgN/A
9:50 pm28 °FFog.No wind93%30.24 "HgN/A
9:20 pm30 °FChilly.1 mph93%30.24 "HgN/A
8:50 pm30 °FSleet. Overcast.No wind93%30.24 "HgN/A
8:20 pm30 °FFog.No wind93%30.24 "HgN/A
7:50 pm32 °FFog.No wind93%30.24 "HgN/A
7:20 pm32 °FClear.No wind93%30.24 "Hg10 mi
6:50 pm34 °FClear.No wind87%30.24 "Hg10 mi
6:20 pm34 °FPassing clouds.No wind93%30.21 "HgN/A
5:50 pm36 °FClear.No wind87%30.21 "Hg10 mi
5:20 pm37 °FClear.No wind81%30.21 "Hg10 mi
4:50 pm39 °FClear.1 mph81%30.21 "Hg10 mi
4:20 pm41 °FClear.2 mph70%30.21 "Hg10 mi
3:50 pm45 °FSunny.7 mph61%30.21 "Hg10 mi
3:20 pm46 °FScattered clouds.8 mph62%30.21 "HgN/A
2:50 pm45 °FScattered clouds.8 mph61%30.21 "HgN/A
2:20 pm46 °FScattered clouds.7 mph62%30.21 "HgN/A
1:50 pm46 °FPassing clouds.8 mph57%30.21 "HgN/A
1:20 pm46 °FPassing clouds.8 mph62%30.21 "HgN/A
12:50 pm46 °FPassing clouds.9 mph66%30.21 "HgN/A
12:20 pm46 °FPassing clouds.9 mph66%30.18 "HgN/A
11:50 am46 °FPassing clouds.7 mph71%30.18 "HgN/A
11:20 am46 °FPassing clouds.7 mph71%30.18 "HgN/A
10:50 am46 °FPassing clouds.6 mph76%30.18 "HgN/A
10:20 am45 °FPassing clouds.6 mph87%30.18 "HgN/A
Weather by CustomWeather, © 2016

See weather overviewHow to use our weather pages